Home   Weather   Rouyn-Noranda   Past weeks

Flag for Canada Past Weather in Rouyn-Noranda, Quebec, Canada — Yesterday and Last 2 Weeks

Now
23 °F

Mostly cloudy.


Feels Like: 15 °F
Forecast: 21 / 28 °F
Wind: 7 mph from East

Location: Rouyn Airport

Current Time: Jan 17, 2017 at 4:27:12 am

Latest Report: Jan 17, 2017 at 4:00 am


Visibility: 15 mi

Pressure: 30.23 "Hg

Humidity: 93%

Dew Point: 21 °F

Location of Rouyn-NorandaLocation

Past Weather in Rouyn-Noranda — Graph

°F

Rouyn-Noranda Temperature Yesterday

Maximum temperature yesterday: 30 °F (at 1:00 pm)
Minimum temperature yesterday: 21 °F (at 12:00 am)
Average temperature yesterday: 26 °F

High & Low Weather Summary for the Past Weeks

 TemperatureHumidityPressure
High34 °F (Jan 11, 1:16 am)93% (Jan 3, 2:00 am)30.82 "Hg (Jan 3, 2:00 am)
Low-22 °F (Jan 7, 2:00 am)54% (Jan 13, 5:00 am)29.07 "Hg (Jan 11, 1:35 am)
Average8 °F80%30.04 "Hg
* Reported Jan 2 3:00 am — Jan 17 3:00 am, Rouyn-Noranda, Weather by CustomWeather, © 2017

Note: Actual official high and low records may vary slightly from our data, if they occured in-between our weather recording intervals... More about our weather records

Advertising

Rouyn-Noranda Weather History for the Previous 24 Hours

Scroll right to see more
 ConditionsComfort  
Time TempWeatherWind HumidityBarometerVisibility
3:00 am
Tue, Jan 17
23 °FLow clouds.5 mph93%30.23 "Hg15 mi
2:00 am25 °FLow clouds.7 mph86%30.22 "Hg15 mi
1:00 am25 °FLow clouds.5 mph93%30.23 "Hg15 mi
12:24 am25 °FLow clouds.7 mph86%30.24 "Hg15 mi
11:42 pm
Mon, Jan 16
25 °FMostly cloudy.8 mph93%30.24 "Hg15 mi
11:00 pm27 °FMostly cloudy.7 mph86%30.24 "Hg15 mi
10:17 pm27 °FMostly cloudy.5 mph86%30.24 "Hg15 mi
10:00 pm27 °FMostly cloudy.6 mph86%30.23 "Hg15 mi
9:00 pm28 °FOvercast.3 mph80%30.22 "Hg15 mi
8:00 pm28 °FOvercast.3 mph80%30.21 "Hg15 mi
7:00 pm30 °FOvercast.3 mph80%30.19 "Hg15 mi
6:18 pm28 °FLight snow. Overcast.2 mph86%30.18 "Hg15 mi
6:00 pm28 °FOvercast.3 mph86%30.19 "Hg15 mi
5:00 pm30 °FPassing clouds.5 mph80%30.17 "Hg15 mi
4:00 pm30 °FOvercast.8 mph80%30.15 "Hg15 mi
3:00 pm30 °FOvercast.8 mph80%30.13 "Hg15 mi
2:00 pm30 °FOvercast.10 mph75%30.11 "Hg15 mi
1:00 pm30 °FOvercast.15 mph75%30.10 "Hg15 mi
12:00 pm28 °FPartly sunny.16 mph74%30.09 "Hg15 mi
11:00 am27 °FPartly sunny.14 mph74%30.10 "Hg15 mi
10:00 am25 °FScattered clouds.16 mph74%30.09 "Hg15 mi
9:00 am25 °FPartly sunny.13 mph74%30.08 "Hg15 mi
8:19 am25 °FPartly sunny.12 mph74%30.06 "Hg15 mi
8:00 am23 °FLight snow. Partly sunny.12 mph80%30.04 "Hg15 mi
7:33 am23 °FLight snow. Partly cloudy.15 mph80%30.04 "Hg15 mi
7:00 am23 °FPassing clouds.16 mph80%30.03 "Hg15 mi
6:00 am25 °FPassing clouds.16 mph80%30.03 "Hg15 mi
5:00 am25 °FPassing clouds.16 mph74%30.03 "Hg15 mi
4:00 am25 °FPassing clouds.15 mph80%30.04 "Hg15 mi
Weather by CustomWeather, © 2017

See weather overviewHow to use our weather pages